SWR94Y MDPC-EDDM

Flight info

Callsign SWR94Y
Flight time N/A
Altitude 37000
Route MELLA2T MELLA G633 DDP DCT JETSS DCT OBIKE/M084F370 DCT 20N060W 25N050W 31N040W 37N030W 42N020W DCT PASAS DCT SIVIR DCT RIVAK/N0482F370 DCT KOLEK DCT AKEMO DCT GIGOT DCT OBATO DCT RESMI UN491 POGZI DCT GELTA DCT LUVAL DCT MIRGU DCT BEGAR DCT TRA DCT NUNRI T103 BETOS BETOS1A
Aircraft A359/H-SDE2E3GHIJ3J4J5LM1ORWXY/LB1D1

Departure

Time N/A
Airport Punta Cana International Airport (MDPC)

Arrival

Time 2026-04-30 05:59
Airport Munich Airport (EDDM)
Time Latitude Longitude Altitude Speed Heading
2026-04-30 05:37 47.58091 9.75024 32847 ft 435 kts 88°
2026-04-30 05:37 47.57963 9.79470 32360 ft 429 kts 88°
2026-04-30 05:37 47.57842 9.83869 31882 ft 425 kts 88°
2026-04-30 05:37 47.57709 9.88219 31402 ft 421 kts 89°
2026-04-30 05:38 47.57560 9.92521 30942 ft 416 kts 89°
2026-04-30 05:38 47.57397 9.96776 30490 ft 412 kts 89°
2026-04-30 05:38 47.57226 10.00984 29975 ft 408 kts 90°
2026-04-30 05:38 47.57050 10.05157 29376 ft 405 kts 90°
2026-04-30 05:39 47.56873 10.09309 28808 ft 402 kts 90°
2026-04-30 05:39 47.56694 10.13406 28412 ft 395 kts 89°
2026-04-30 05:39 47.56517 10.17442 27878 ft 392 kts 89°
2026-04-30 05:39 47.56342 10.21463 27296 ft 391 kts 90°
2026-04-30 05:40 47.56168 10.25425 26746 ft 389 kts 90°
2026-04-30 05:40 47.55992 10.29410 26209 ft 387 kts 90°
2026-04-30 05:40 47.55817 10.33385 25662 ft 386 kts 90°
2026-04-30 05:40 47.55642 10.37336 25160 ft 384 kts 90°
2026-04-30 05:41 47.55463 10.41269 24649 ft 382 kts 90°
2026-04-30 05:41 47.55280 10.45188 24156 ft 380 kts 90°
2026-04-30 05:41 47.55097 10.49084 23623 ft 379 kts 90°
2026-04-30 05:41 47.55074 10.52963 23040 ft 374 kts 81°
2026-04-30 05:42 47.55626 10.56673 22495 ft 367 kts 67°
2026-04-30 05:42 47.56657 10.60097 22026 ft 361 kts 61°
2026-04-30 05:42 47.57843 10.63353 21514 ft 358 kts 58°
2026-04-30 05:42 47.59104 10.66511 21000 ft 355 kts 57°
2026-04-30 05:43 47.60388 10.69613 20495 ft 352 kts 56°
2026-04-30 05:43 47.61667 10.72681 19997 ft 349 kts 56°
2026-04-30 05:43 47.62933 10.75743 19511 ft 346 kts 57°
2026-04-30 05:43 47.64177 10.78786 19015 ft 344 kts 57°
2026-04-30 05:44 47.65404 10.81818 18576 ft 341 kts 57°
2026-04-30 05:44 47.66616 10.84834 18002 ft 340 kts 57°
2026-04-30 05:44 47.67894 10.87771 17401 ft 338 kts 51°
2026-04-30 05:44 47.69486 10.90318 16824 ft 336 kts 43°
2026-04-30 05:45 47.71216 10.92640 16261 ft 335 kts 40°
2026-04-30 05:45 47.73006 10.94848 15726 ft 334 kts 39°
2026-04-30 05:45 47.74819 10.96989 15191 ft 333 kts 39°
2026-04-30 05:45 47.76641 10.99108 14645 ft 332 kts 39°
2026-04-30 05:46 47.78440 11.01200 14112 ft 332 kts 39°
2026-04-30 05:46 47.80254 11.03324 13471 ft 333 kts 39°
2026-04-30 05:46 47.82070 11.05468 12902 ft 332 kts 39°
2026-04-30 05:46 47.83861 11.07595 12427 ft 328 kts 39°
2026-04-30 05:47 47.85633 11.09708 11911 ft 325 kts 40°
2026-04-30 05:47 47.87391 11.11803 11406 ft 323 kts 39°
2026-04-30 05:47 47.89144 11.13888 10880 ft 321 kts 40°
2026-04-30 05:47 47.90875 11.15945 10518 ft 314 kts 41°
2026-04-30 05:48 47.92549 11.17937 10337 ft 301 kts 40°
2026-04-30 05:48 47.94158 11.19854 10126 ft 290 kts 40°
2026-04-30 05:48 47.95704 11.21696 9928 ft 280 kts 41°
2026-04-30 05:48 47.97216 11.23504 9525 ft 277 kts 41°
2026-04-30 05:49 47.98719 11.25303 9131 ft 276 kts 41°
2026-04-30 05:49 48.00235 11.27031 8751 ft 273 kts 35°
2026-04-30 05:49 48.02009 11.28086 8318 ft 277 kts 17°
2026-04-30 05:49 48.03888 11.28705 7903 ft 277 kts 14°
2026-04-30 05:50 48.05781 11.29248 7490 ft 276 kts 14°
2026-04-30 05:50 48.07661 11.29771 7094 ft 275 kts 15°
2026-04-30 05:50 48.09533 11.30302 6688 ft 273 kts 14°
2026-04-30 05:50 48.11394 11.30825 6309 ft 270 kts 14°
2026-04-30 05:51 48.13237 11.31328 5933 ft 268 kts 14°
2026-04-30 05:51 48.15067 11.31826 5539 ft 267 kts 14°
2026-04-30 05:51 48.16882 11.32335 5195 ft 264 kts 14°
2026-04-30 05:51 48.18676 11.32830 4993 ft 262 kts 14°
2026-04-30 05:52 48.20477 11.33315 4967 ft 263 kts 14°
2026-04-30 05:52 48.22277 11.33809 4964 ft 263 kts 14°
2026-04-30 05:52 48.24068 11.34325 4971 ft 261 kts 17°
2026-04-30 05:52 48.25658 11.35519 4971 ft 253 kts 44°
2026-04-30 05:53 48.26830 11.37369 4979 ft 236 kts 53°
2026-04-30 05:53 48.27829 11.39206 4977 ft 219 kts 54°
2026-04-30 05:53 48.28755 11.40919 4962 ft 204 kts 54°
2026-04-30 05:53 48.29626 11.42508 4952 ft 190 kts 54°
2026-04-30 05:54 48.30449 11.44008 4983 ft 188 kts 54°
2026-04-30 05:54 48.31291 11.45592 5005 ft 205 kts 57°
2026-04-30 05:54 48.31877 11.47605 4990 ft 214 kts 78°
2026-04-30 05:54 48.32112 11.49827 4957 ft 217 kts 84°
2026-04-30 05:55 48.32281 11.52086 4724 ft 217 kts 84°
2026-04-30 05:55 48.32454 11.54330 4396 ft 216 kts 84°
2026-04-30 05:55 48.32632 11.56549 4064 ft 209 kts 85°
2026-04-30 05:55 48.32797 11.58660 3789 ft 197 kts 85°
2026-04-30 05:56 48.32950 11.60645 3524 ft 185 kts 85°
2026-04-30 05:56 48.33092 11.62475 3284 ft 167 kts 85°
2026-04-30 05:56 48.33219 11.64126 3062 ft 153 kts 85°
2026-04-30 05:56 48.33346 11.65660 2832 ft 142 kts 85°
2026-04-30 05:57 48.33474 11.67053 2597 ft 128 kts 85°
2026-04-30 05:57 48.33566 11.68323 2400 ft 119 kts 86°
2026-04-30 05:57 48.33624 11.69565 2248 ft 120 kts 86°
2026-04-30 05:57 48.33698 11.70820 2122 ft 121 kts 83°
2026-04-30 05:58 48.33827 11.72090 1981 ft 124 kts 82°
2026-04-30 05:58 48.33944 11.73393 1783 ft 128 kts 84°
2026-04-30 05:58 48.34038 11.74747 1584 ft 132 kts 83°
2026-04-30 05:58 48.34144 11.76081 1483 ft 123 kts 83°
2026-04-30 05:59 48.34230 11.77197 1483 ft 93 kts 83°
2026-04-30 05:59 48.34292 11.78013 1478 ft 66 kts 83°
2026-04-30 05:59 48.34335 11.78551 1480 ft 38 kts 83°
2026-04-30 05:59 48.34362 11.78879 1481 ft 29 kts 82°
2026-04-30 06:00 48.34426 11.79152 1476 ft 27 kts 53°
2026-04-30 06:00 48.34542 11.79370 1476 ft 27 kts 51°
2026-04-30 06:00 48.34604 11.79499 1478 ft 11 kts 55°
2026-04-30 06:00 48.34650 11.79598 1478 ft 13 kts 54°
2026-04-30 06:01 48.34709 11.79706 1481 ft 14 kts 32°
2026-04-30 06:01 48.34802 11.79703 1484 ft 15 kts 353°
2026-04-30 06:01 48.34914 11.79683 1489 ft 17 kts 353°
2026-04-30 06:01 48.35044 11.79660 1477 ft 20 kts 353°
2026-04-30 06:02 48.35187 11.79636 1484 ft 22 kts 354°
2026-04-30 06:02 48.35334 11.79611 1479 ft 16 kts 353°
2026-04-30 06:02 48.35426 11.79596 1479 ft 12 kts 353°
2026-04-30 06:02 48.35450 11.79591 1484 ft 0 kts 353°
2026-04-30 06:03 48.35453 11.79591 1484 ft 4 kts 353°
2026-04-30 06:03 48.35498 11.79584 1483 ft 6 kts 354°
2026-04-30 06:03 48.35519 11.79604 1476 ft 3 kts 65°
2026-04-30 06:04 48.35524 11.79641 1476 ft 5 kts 77°
2026-04-30 06:04 48.35529 11.79695 1481 ft 4 kts 83°
2026-04-30 06:04 48.35531 11.79719 1478 ft 1 kts 83°
2026-04-30 06:05 48.35531 11.79723 1478 ft 0 kts 83°